• In Belarus
  • List of Countries
  • For 7 days
  • Water Temperature
  • Satellite Maps
  • Weather Map
  • Weather Widgets
  • user-avatar
    Login

    Hourly Weather Cyklady

    Today, 13 December, Thursday

    Time Temperature Precipitation Wind Pressure Humidity
    00:00 +3°C° 0.1 mm 2 mps 685 mmHg 67%
    01:00 +3°C° 0.1 mm 2 mps 685 mmHg 67%
    02:00 +2°C° 0.4 mm 2 mps 684 mmHg 71%
    03:00 +1°C° 0.4 mm 3 mps 684 mmHg 75%
    04:00 +1°C° 0.4 mm 3 mps 683 mmHg 79%
    05:00 +1°C° 1.4 mm 3 mps 683 mmHg 83%
    06:00 +1°C° 1.4 mm 3 mps 683 mmHg 87%
    07:00 +1°C° 1.4 mm 3 mps 682 mmHg 90%
    08:00 +1°C° 1.2 mm 3 mps 683 mmHg 91%
    09:00 +1°C° 1.2 mm 3 mps 683 mmHg 91%
    10:00 +3°C° 1.2 mm 2 mps 683 mmHg 91%
    11:00 +4°C° 0.5 mm 2 mps 683 mmHg 91%
    12:00 +5°C° 0.5 mm 2 mps 683 mmHg 91%
    13:00 +6°C° 0.5 mm 2 mps 683 mmHg 91%
    14:00 +6°C° 0.4 mm 2 mps 682 mmHg 93%
    15:00 +6°C° 0.4 mm 2 mps 682 mmHg 94%
    16:00 +7°C° 0.4 mm 1 mps 682 mmHg 95%
    17:00 +7°C° 0.7 mm 1 mps 682 mmHg 96%
    18:00 +5°C° 0.7 mm 2 mps 682 mmHg 96%
    19:00 +5°C° 0.7 mm 2 mps 682 mmHg 97%
    20:00 +5°C° 0.2 mm 2 mps 683 mmHg 97%
    21:00 +5°C° 0.2 mm 2 mps 683 mmHg 97%
    22:00 +6°C° 0.2 mm 1 mps 683 mmHg 97%
    23:00 +6°C° 0.1 mm 1 mps 683 mmHg 97%

    Tomorrow, 14 December, Friday

    Time Temperature Precipitation Wind Pressure Humidity
    00:00 +6°C° 0.1 mm 1 mps 683 mmHg 97%
    01:00 +6°C° 0.1 mm 1 mps 683 mmHg 97%
    02:00 +7°C° 0.2 mm 1 mps 683 mmHg 96%
    03:00 +6°C° 0.2 mm 2 mps 683 mmHg 96%
    04:00 +6°C° 0.2 mm 2 mps 683 mmHg 95%
    05:00 +6°C° 0.1 mm 2 mps 683 mmHg 95%
    06:00 +6°C° 0.1 mm 2 mps 683 mmHg 95%
    07:00 +6°C° 0.1 mm 2 mps 684 mmHg 95%
    08:00 +7°C° 0.1 mm 2 mps 684 mmHg 91%
    09:00 +9°C° 0.1 mm 2 mps 684 mmHg 86%
    10:00 +10°C° 0.1 mm 3 mps 685 mmHg 82%
    11:00 +11°C° 0 mm 3 mps 685 mmHg 80%
    12:00 +11°C° 0 mm 3 mps 684 mmHg 77%
    13:00 +11°C° 0 mm 3 mps 684 mmHg 75%
    14:00 +10°C° 0 mm 3 mps 684 mmHg 78%
    15:00 +9°C° 0 mm 3 mps 684 mmHg 82%
    16:00 +8°C° 0 mm 3 mps 683 mmHg 86%
    17:00 +7°C° 0 mm 3 mps 683 mmHg 87%
    18:00 +7°C° 0 mm 3 mps 683 mmHg 88%
    19:00 +5°C° 0 mm 3 mps 683 mmHg 89%
    20:00 +5°C° 0 mm 3 mps 683 mmHg 88%
    21:00 +5°C° 0 mm 4 mps 683 mmHg 88%
    22:00 +5°C° 0 mm 4 mps 683 mmHg 87%
    23:00 +5°C° 0 mm 4 mps 683 mmHg 87%

    Day after tomorrow, 15 December, Saturday

    Time Temperature Precipitation Wind Pressure Humidity
    00:00 +4°C° 0 mm 4 mps 683 mmHg 88%
    01:00 +4°C° 0 mm 4 mps 682 mmHg 88%
    02:00 +4°C° 0 mm 4 mps 682 mmHg 88%
    03:00 +4°C° 0 mm 4 mps 682 mmHg 88%
    04:00 +4°C° 0 mm 4 mps 682 mmHg 88%
    05:00 +4°C° 0.1 mm 4 mps 682 mmHg 88%
    06:00 +5°C° 0.1 mm 3 mps 682 mmHg 88%
    07:00 +5°C° 0.1 mm 3 mps 682 mmHg 88%
    08:00 +6°C° 0.1 mm 4 mps 682 mmHg 85%
    09:00 +7°C° 0.1 mm 4 mps 682 mmHg 82%
    10:00 +8°C° 0.1 mm 4 mps 683 mmHg 80%
    11:00 +10°C° 0.1 mm 4 mps 682 mmHg 76%
    12:00 +10°C° 0.1 mm 4 mps 682 mmHg 73%
    13:00 +11°C° 0.1 mm 4 mps 681 mmHg 70%
    14:00 +10°C° 0.1 mm 4 mps 681 mmHg 75%
    15:00 +8°C° 0.1 mm 4 mps 681 mmHg 79%
    16:00 +8°C° 0.1 mm 3 mps 680 mmHg 84%
    17:00 +7°C° 0.2 mm 3 mps 680 mmHg 86%
    18:00 +7°C° 0.2 mm 3 mps 680 mmHg 87%
    19:00 +7°C° 0.2 mm 3 mps 680 mmHg 89%
    20:00 +7°C° 0.1 mm 3 mps 680 mmHg 89%
    21:00 +5°C° 0.1 mm 3 mps 680 mmHg 90%
    22:00 +5°C° 0.1 mm 3 mps 680 mmHg 90%
    23:00 +5°C° 0.2 mm 3 mps 680 mmHg 91%

    16 December, Sunday

    Time Temperature Precipitation Wind Pressure Humidity
    00:00 +6°C° 0.2 mm 2 mps 680 mmHg 91%
    01:00 +6°C° 0.2 mm 2 mps 679 mmHg 92%
    02:00 +6°C° 0.2 mm 2 mps 679 mmHg 92%
    03:00 +5°C° 0.2 mm 2 mps 679 mmHg 92%
    04:00 +5°C° 0.2 mm 2 mps 679 mmHg 92%
    05:00 +5°C° 0 mm 2 mps 679 mmHg 91%
    06:00 +5°C° 0 mm 2 mps 680 mmHg 90%
    07:00 +5°C° 0 mm 2 mps 680 mmHg 89%
    08:00 +6°C° 0 mm 2 mps 680 mmHg 82%
    09:00 +8°C° 0 mm 2 mps 681 mmHg 75%
    10:00 +10°C° 0 mm 2 mps 682 mmHg 68%
    11:00 +10°C° 0 mm 2 mps 682 mmHg 65%
    12:00 +12°C° 0 mm 2 mps 681 mmHg 63%
    13:00 +11°C° 0 mm 3 mps 681 mmHg 60%
    14:00 +10°C° 0 mm 3 mps 681 mmHg 66%
    15:00 +9°C° 0 mm 3 mps 681 mmHg 73%
    16:00 +8°C° 0 mm 3 mps 681 mmHg 79%
    17:00 +7°C° 0 mm 3 mps 682 mmHg 83%
    18:00 +5°C° 0 mm 3 mps 682 mmHg 86%
    19:00 +5°C° 0 mm 3 mps 682 mmHg 90%
    20:00 +4°C° 0 mm 3 mps 682 mmHg 91%
    21:00 +4°C° 0 mm 3 mps 683 mmHg 92%
    22:00 +3°C° 0 mm 3 mps 683 mmHg 93%
    23:00 +3°C° 0 mm 3 mps 683 mmHg 93%

    17 December, Monday

    Time Temperature Precipitation Wind Pressure Humidity
    00:00 +3°C° 0 mm 3 mps 683 mmHg 93%
    01:00 +3°C° 0 mm 3 mps 683 mmHg 93%
    02:00 +3°C° 0 mm 3 mps 683 mmHg 92%
    03:00 +2°C° 0 mm 3 mps 683 mmHg 91%
    04:00 +1°C° 0 mm 4 mps 683 mmHg 90%
    05:00 +2°C° 0 mm 3 mps 683 mmHg 90%
    06:00 +2°C° 0 mm 3 mps 683 mmHg 89%
    07:00 +2°C° 0 mm 3 mps 683 mmHg 89%
    08:00 +4°C° 0 mm 3 mps 684 mmHg 81%
    09:00 +5°C° 0 mm 3 mps 684 mmHg 73%
    10:00 +8°C° 0 mm 2 mps 684 mmHg 65%
    11:00 +8°C° 0 mm 2 mps 684 mmHg 64%
    12:00 +9°C° 0 mm 3 mps 684 mmHg 63%
    13:00 +10°C° 0 mm 3 mps 684 mmHg 61%
    14:00 +9°C° 0 mm 2 mps 684 mmHg 67%
    15:00 +8°C° 0 mm 2 mps 684 mmHg 73%
    16:00 +7°C° 0 mm 2 mps 683 mmHg 79%
    17:00 +6°C° 0 mm 2 mps 683 mmHg 82%
    18:00 +5°C° 0 mm 2 mps 683 mmHg 85%
    19:00 +6°C° 0 mm 1 mps 683 mmHg 88%
    20:00 +5°C° 0.1 mm 2 mps 683 mmHg 87%
    21:00 +5°C° 0.1 mm 2 mps 683 mmHg 86%
    22:00 +5°C° 0.1 mm 2 mps 683 mmHg 85%
    23:00 +5°C° 0.5 mm 2 mps 683 mmHg 86%

    18 December, Tuesday

    Time Temperature Precipitation Wind Pressure Humidity
    00:00 +6°C° 0.5 mm 2 mps 683 mmHg 87%
    01:00 +6°C° 0.5 mm 2 mps 683 mmHg 88%
    02:00 +6°C° 0.7 mm 2 mps 682 mmHg 90%
    03:00 +6°C° 0.7 mm 2 mps 682 mmHg 92%
    04:00 +6°C° 0.7 mm 2 mps 682 mmHg 94%
    05:00 +6°C° 0.3 mm 2 mps 682 mmHg 95%
    06:00 +6°C° 0.3 mm 2 mps 682 mmHg 95%
    07:00 +5°C° 0.3 mm 3 mps 682 mmHg 95%
    08:00 +5°C° 0.9 mm 3 mps 682 mmHg 90%
    09:00 +6°C° 0.9 mm 4 mps 682 mmHg 86%
    10:00 +7°C° 0.9 mm 5 mps 682 mmHg 81%
    11:00 +7°C° 0.8 mm 5 mps 682 mmHg 78%
    12:00 +7°C° 0.8 mm 5 mps 681 mmHg 75%
    13:00 +7°C° 0.8 mm 5 mps 681 mmHg 73%
    14:00 +6°C° 0.5 mm 4 mps 681 mmHg 76%
    15:00 +5°C° 0.5 mm 3 mps 681 mmHg 80%
    16:00 +4°C° 0.5 mm 3 mps 681 mmHg 84%
    17:00 +4°C° 0.3 mm 3 mps 681 mmHg 85%
    18:00 +3°C° 0.3 mm 3 mps 682 mmHg 87%
    19:00 +3°C° 0.3 mm 3 mps 682 mmHg 89%
    20:00 +3°C° 0.1 mm 3 mps 682 mmHg 89%
    21:00 +3°C° 0.1 mm 3 mps 683 mmHg 89%
    22:00 +2°C° 0.1 mm 3 mps 683 mmHg 89%
    23:00 +2°C° 0 mm 3 mps 684 mmHg 89%
    Show more